Location: Unspecified
(40.7945°N, 111.1337°W)
Time: 17:10:38
(UTC-06:00)

Okean 3 - Visible Passes

Search period start: 20 August 2017 00:00
Search period end: 30 August 2017 00:00
Orbit: 577 x 603 km, 82.5° (Epoch: 20 August)

Date Brightness Start Highest point End Pass type
(mag) Time Alt. Az. Time Alt. Az. Time Alt. Az.
20 Aug 5.6 20:41:53 10° NNW 20:45:39 32° W 20:49:27 10° SSW visible
21 Aug 6.3 20:50:32 10° NW 20:53:47 21° W 20:57:02 10° SW visible
22 Aug 6.6 20:59:32 10° NW 21:01:51 14° W 21:04:11 10° WSW visible
